Old Res Weather

Lexington, Massachusetts, USA

68°F
8/10/2022 3:12am 
  • Lexington Conditions: Overcast
  • Temperature: 67.6°F / 19.8°C 
  • Dew Point: 63.7°FDecreased 0.5°Fsince last hour.
  • Relative Humidity: 87%Decreased 2.0% since last hour.
  • Wind: Calm, 10-min avg: Calm, gust: 1 mph
  • Barometer: 30.04 in Steady
  • Visibility: 10 miles
  • Rain Today: 0.00 in
  • UV Index: $VPuv None
  •   

Regional Weather Roundup
for Boston, MA

        
000
ASUS41 KBOX 100710
RWRBOX

REGIONAL WEATHER ROUNDUP
NATIONAL WEATHER SERVICE BOSTON/NORTON MA
300 AM EDT WED AUG 10 2022

NOTE:  "FAIR" INDICATES FEW OR NO CLOUDS BELOW 12,000 FEET WITH NO 
SIGNIFICANT WEATHER AND/OR OBSTRUCTIONS TO VISIBILITY.

MAZALL-100800-
EASTERN MASSACHUSETTS
  
CITY           SKY/WX    TMP DP  RH WIND       PRES   REMARKS
BOSTON         CLOUDY    67  64  90 NE9       30.03R                  
BEVERLY        CLOUDY    66  63  90 N8        30.03R                  
LAWRENCE       CLOUDY    67  62  84 NE8       30.05R                  
BEDFORD        CLOUDY    68  63  84 NE9       30.02S                  
BLUE HILL      NOT AVBL                                               
NORWOOD        CLOUDY    68  64  87 E6        30.02R                  
MARSHFIELD     FOG       66  64  94 VRB5      30.01R VSB 1            
PLYMOUTH       CLOUDY    67  66  97 NE12      30.00S FOG              
TAUNTON        CLOUDY    67  65  93 VRB3      30.00S FOG              
NEW BEDFORD    CLOUDY    68  68 100 N8        29.99R FOG              
$$

MAZALL-100800-
CAPE COD AND THE ISLANDS
  
CITY           SKY/WX    TMP DP  RH WIND       PRES   REMARKS
FALMOUTH       NOT AVBL                                               
HYANNIS        CLOUDY    72  70  93 NE7       29.96S FOG              
CHATHAM        FOG       71  69  93 NE8       29.98R VSB 3/4          
NANTUCKET      CLOUDY    77  75  93 N8        29.96R                  
MARTHAS VNYRD  CLOUDY    72  71  97 N10       29.97R FOG              
$$
 
MAZALL-100800-
CENTRAL AND WESTERN MASSACHUSETTS
  
CITY           SKY/WX    TMP DP  RH WIND       PRES   REMARKS
WORCESTER      CLOUDY    65  64  97 NE6       30.05S                  
FITCHBURG      CLOUDY    68  62  81 NE3       30.05R                  
ORANGE         CLOUDY    70  65  84 CALM      30.04R                  
SPRINGFIELD    CLOUDY    71  61  70 N8        29.99R                  
WESTFIELD      CLOUDY    72  63  73 N7        30.01S                  
NORTH ADAMS    CLEAR     61  60  97 N5        30.06R                  
PITTSFIELD     MOCLDY    63  61  93 W5        30.06R                  
$$
 
RIZALL-100800-
RHODE ISLAND
  
CITY           SKY/WX    TMP DP  RH WIND       PRES   REMARKS
PROVIDENCE     CLOUDY    68  66  93 NE14      30.01R                  
NEWPORT        CLOUDY    67  67 100 N12       29.99R                  
BLOCK ISLAND   CLOUDY    68  67  96 NE12G22   30.00R                  
SMITHFIELD     CLOUDY    66  66 100 NE7       30.03R                  
WESTERLY       MOCLDY    75  72  90 NE7       29.98R                  
$$
 
CTZALL-100800-
CONNECTICUT
  
CITY           SKY/WX    TMP DP  RH WIND       PRES   REMARKS
BRADLEY INTL   MOCLDY    74  63  68 N5        30.01R                  
HARTFORD       CLOUDY    77  64  64 N9        29.99R                  
BRIDGEPORT     PTCLDY    77  62  59 N8        29.98S                  
DANBURY        CLOUDY    76  61  59 N6        30.03R                  
GROTON         MOCLDY    79  66  64 N8        29.97R                  
NEW HAVEN      MOCLDY    79  64  60 N7        29.98R                  
CHESTER        MOCLDY    75  64  69 N6        30.00R                  
MERIDEN        PTCLDY    76  61  59 NW6       29.99R                  
WILLIMANTIC    CLOUDY    73  68  84 NE7       30.01R                  
OXFORD         MOCLDY    71  63  75 N8        30.03S                  
$$

MEZ002-015-021-024-NHZ003-005-008-011-012-014-VTZ005-008-100800-
NORTHERN NEW ENGLAND
  
CITY           SKY/WX    TMP DP  RH WIND       PRES   REMARKS
PORTLAND ME    CLOUDY    65  60  84 N6        30.05R                  
BANGOR ME      MOCLDY    62  60  93 NE6       30.06R                  
CONCORD NH     CLOUDY    66  63  90 SE5       30.04R                  
MANCHESTER NH  CLOUDY    69  62  78 CALM      30.03R                  
NASHUA NH      CLOUDY    68  67  96 E6        30.05R                  
PORTSMOUTH NH  CLOUDY    65  59  81 E6        30.04R                  
JAFFREY NH     CLOUDY    67  64  90 CALM      30.06R                  
KEENE NH       PTCLDY    66  64  93 CALM        N/A                   
BURLINGTON VT  CLOUDY    65  59  81 CALM      30.07R                  
MT. WASHINGTON FOG       50  50 100 W31G40      N/A  VSB 0            
$$

NYZ052-076-100800-
EASTERN NEW YORK
  
CITY           SKY/WX    TMP DP  RH WIND       PRES   REMARKS
ALBANY         MOCLDY    65  59  81 CALM      30.07R                  
NEW YORK CITY  MOCLDY    79  62  56 N9        29.98R                  
$$
 
ANZALL-100800-
MARINE OBSERVATIONS
  
STATION/POSITION TIME  TEMP    WIND        PRES    VSBY  WAVE
                       AIR SEA DIR/SP/G                  HT/PER
                 (UTC) (F)     (DEG/KT/KT) (MB)    (MI)  (FT/S)
BOSTON BUOY      NOT AVBL
BUZZARDS BAY     NOT AVBL
NANTUCKET SOUND  NOT AVBL
MASS BAY-STELLWA NOT AVBL
ISLE OF SHOALS   NOT AVBL
S OF BLOCK IS    NOT AVBL
$$

......................KEY.........................
  SKY/WX - SKY CONDITION/PRESENT WEATHER
  TMP    - TEMPERATURE IN FAHRENHEIT
  DWPT   - DEWPOINT IN FAHRENHEIT
  RH     - RELATIVE HUMIDITY IN PERCENT
  WIND   - DIRECTION AND SPEED IN MPH
  PRES   - MEAN SEA LEVEL PRESSURE IN INCHES OF HG
  WCI    - WIND CHILL INDEX
  VSB    - VISIBILITY IN MILES
  HX     - HEAT INDEX
  TC     - TEMPERATURE IN CELSIUS
  VRB    - VARIABLE WIND DIRECTION
  N/A    - NOT AVAILABLE
  
      

Other recent Regional Weather Roundups

Wed Aug 10, 2:10am

Wed Aug 10, 1:10am

Wed Aug 10, 12:10am

Tue Aug 9, 11:10pm

Tue Aug 9, 10:10pm

Tue Aug 9, 9:10pm

Tue Aug 9, 8:10pm

Tue Aug 9, 7:10pm

Tue Aug 9, 6:10pm

Tue Aug 9, 5:10pm

Tue Aug 9, 4:10pm

Tue Aug 9, 3:10pm

Tue Aug 9, 2:10pm

Tue Aug 9, 1:10pm

Tue Aug 9, 12:10pm

Tue Aug 9, 11:10am

Tue Aug 9, 10:10am

Tue Aug 9, 9:10am

Tue Aug 9, 8:10am

Tue Aug 9, 7:10am

Tue Aug 9, 6:10am

Tue Aug 9, 5:10am

Tue Aug 9, 4:10am

Tue Aug 9, 3:10am

Tue Aug 9, 2:10am

Tue Aug 9, 1:10am

Tue Aug 9, 12:10am

Mon Aug 8, 11:10pm

Mon Aug 8, 10:10pm

Mon Aug 8, 9:10pm

Mon Aug 8, 8:10pm

Mon Aug 8, 7:10pm

Mon Aug 8, 6:10pm

Mon Aug 8, 5:10pm

Mon Aug 8, 4:10pm

Mon Aug 8, 3:10pm

Mon Aug 8, 2:10pm

Mon Aug 8, 1:10pm

Mon Aug 8, 12:10pm

Mon Aug 8, 11:10am

Mon Aug 8, 10:10am

Mon Aug 8, 9:10am

Mon Aug 8, 8:10am

Mon Aug 8, 7:10am

Mon Aug 8, 6:10am

Mon Aug 8, 5:10am

Mon Aug 8, 4:10am

Mon Aug 8, 3:10am

Mon Aug 8, 2:10am

Mon Aug 8, 1:10am

Mon Aug 8, 12:10am

Sun Aug 7, 11:10pm

Sun Aug 7, 10:10pm

Sun Aug 7, 9:10pm

Sun Aug 7, 8:10pm

Sun Aug 7, 7:10pm

Sun Aug 7, 6:10pm

Sun Aug 7, 5:10pm

Sun Aug 7, 4:10pm

Sun Aug 7, 3:10pm

Sun Aug 7, 2:10pm

Sun Aug 7, 1:10pm

Sun Aug 7, 12:10pm

Sun Aug 7, 11:10am

Sun Aug 7, 10:10am

Sun Aug 7, 9:10am

Sun Aug 7, 8:10am

Sun Aug 7, 7:10am

Sun Aug 7, 6:10am

Sun Aug 7, 5:10am

Sun Aug 7, 4:10am

Sun Aug 7, 3:10am

Sun Aug 7, 2:10am

Sun Aug 7, 1:10am

Sun Aug 7, 12:10am

Sat Aug 6, 11:10pm

Sat Aug 6, 10:10pm

Sat Aug 6, 9:10pm

Sat Aug 6, 8:10pm

Sat Aug 6, 7:10pm

Sat Aug 6, 6:10pm

Sat Aug 6, 5:10pm

Sat Aug 6, 4:10pm

Sat Aug 6, 3:10pm

Sat Aug 6, 2:10pm

Sat Aug 6, 1:10pm

Sat Aug 6, 12:10pm

Sat Aug 6, 11:10am

Sat Aug 6, 10:10am

Sat Aug 6, 9:10am

Sat Aug 6, 8:10am

Sat Aug 6, 7:10am

Sat Aug 6, 6:10am

Sat Aug 6, 5:10am

Sat Aug 6, 4:10am

Sat Aug 6, 3:10am

Sat Aug 6, 2:10am

Sat Aug 6, 1:10am

Sat Aug 6, 12:10am

Fri Aug 5, 11:10pm

Fri Aug 5, 10:10pm

Fri Aug 5, 9:10pm

Fri Aug 5, 8:10pm

Fri Aug 5, 7:10pm

Fri Aug 5, 6:10pm

Fri Aug 5, 5:10pm

Fri Aug 5, 4:10pm

Fri Aug 5, 3:10pm

Fri Aug 5, 2:10pm

Fri Aug 5, 1:10pm

Fri Aug 5, 12:10pm

Fri Aug 5, 11:10am

Fri Aug 5, 10:10am

Fri Aug 5, 9:10am

Fri Aug 5, 8:10am

Fri Aug 5, 7:10am

Fri Aug 5, 6:10am

Fri Aug 5, 5:10am

Fri Aug 5, 4:10am

Fri Aug 5, 3:10am

Fri Aug 5, 2:10am

Fri Aug 5, 1:10am

Fri Aug 5, 12:10am

Thu Aug 4, 11:10pm

Thu Aug 4, 10:10pm

Thu Aug 4, 9:10pm

Thu Aug 4, 8:10pm

Thu Aug 4, 7:10pm

Thu Aug 4, 6:10pm

Thu Aug 4, 5:10pm

Thu Aug 4, 4:10pm

Thu Aug 4, 3:10pm

Thu Aug 4, 2:10pm

Thu Aug 4, 1:10pm

Thu Aug 4, 12:10pm

Thu Aug 4, 11:10am

Thu Aug 4, 10:10am

Thu Aug 4, 9:10am

Thu Aug 4, 8:10am

Thu Aug 4, 7:10am

Thu Aug 4, 6:10am

Thu Aug 4, 5:10am

Thu Aug 4, 4:10am

Thu Aug 4, 3:10am

Thu Aug 4, 2:10am

Thu Aug 4, 1:10am

Thu Aug 4, 12:10am

Wed Aug 3, 11:10pm

Wed Aug 3, 10:10pm

Wed Aug 3, 9:10pm

Wed Aug 3, 8:10pm

Wed Aug 3, 7:10pm

Wed Aug 3, 6:10pm

Wed Aug 3, 5:10pm

Wed Aug 3, 4:10pm

Wed Aug 3, 3:10pm

Wed Aug 3, 2:10pm

Wed Aug 3, 1:10pm

Wed Aug 3, 12:10pm

Wed Aug 3, 11:10am

Wed Aug 3, 10:10am

Wed Aug 3, 9:10am

Wed Aug 3, 8:10am

Wed Aug 3, 7:10am

Wed Aug 3, 6:10am

Wed Aug 3, 5:10am

Wed Aug 3, 4:10am

Wed Aug 3, 3:10am

Meta data:

ID: 03da8746-654a-46cb-ba2a-b8237b4311d4
Link: https://api.weather.gov/products/03da8746-654a-46cb-ba2a-b8237b4311d4